Weather History for Whidbey Island, WA

Change the Weather History Date:

Sunday, September 22, 2013

  Actual Average Record
Temperature  
Mean Temperature 58 °F -  
Max Temperature 61 °F 60 °F 73 °F (2014)
Min Temperature 55 °F 44 °F 37 °F (2000)
Degree Days  
Heating Degree Days 8    
Growing Degree Days 8 (Base 50)    
Moisture  
Dew Point 52 °F    
Average Humidity 83    
Maximum Humidity 94    
Minimum Humidity 63    
Precipitation  
Precipitation 0.02 in - - ()
Sea Level Pressure  
Sea Level Pressure 29.63 in    
Wind  
Wind Speed 14 mph (SE)    
Max Wind Speed 37 mph    
Max Gust Speed 53 mph    
Visibility 10 miles    
Events Rain    
Averages and records for this station are not official NWS values.
T = Trace of Precipitation, MM = Missing Value Source: NWS Daily Summary

Daily Weather History Graph

Daily Weather History Graph

Search for Another Location

Airport:

Trip Planner

Search our weather history database for the weather conditions in past years. The results will help you decide how hot, cold, wet, or windy it might be!

Date:

Astronomy

Sep. 22, 2013 Rise Set
Actual Time 6:57 AM PDT 7:07 PM PDT
Civil Twilight 6:26 AM PDT 7:38 PM PDT
Nautical Twilight 5:49 AM PDT 8:15 PM PDT
Astronomical Twilight 5:11 AM PDT 8:53 PM PDT
Moon 8:41 PM PDT (9/22) 10:42 AM PDT (9/22)
Length of Visible Light 13h 12m
Length of Day
12h 09m
Waning Gibbous, 88% of the Moon is Illuminated
Sep 22
Waning Gibbous
Sep 26
Last Quarter
Oct 4
New
Oct 11
First Quarter
Oct 18
Full

Hourly Weather History & Observations

Time (PDT) Temp. Dew Point Humidity Pressure Visibility Wind Dir Wind Speed Gust Speed Precip Events Conditions
12:56 AM 55.9 °F 54.0 °F 93% 29.70 in 10.0 mi Variable 3.5 mph - N/A   Overcast
1:56 AM 55.9 °F 53.1 °F 90% 29.68 in 10.0 mi East 3.5 mph - N/A   Overcast
2:24 AM 55.4 °F 53.6 °F 94% 29.67 in 10.0 mi ESE 4.6 mph - N/A   Overcast
2:41 AM 55.4 °F 53.6 °F 94% 29.67 in 10.0 mi ESE 6.9 mph - N/A   Mostly Cloudy
2:56 AM 55.0 °F 52.0 °F 89% 29.68 in 10.0 mi ESE 6.9 mph - N/A   Mostly Cloudy
3:12 AM 55.4 °F 51.8 °F 88% 29.66 in 10.0 mi ESE 9.2 mph - N/A   Mostly Cloudy
3:35 AM 55.4 °F 53.6 °F 94% 29.65 in 10.0 mi ESE 5.8 mph - N/A   Overcast
3:56 AM 57.0 °F 53.1 °F 87% 29.66 in 10.0 mi SE 8.1 mph - N/A   Overcast
4:42 AM 57.2 °F 53.6 °F 88% 29.63 in 10.0 mi SSE 13.8 mph - 0.00 in Rain Light Rain
4:56 AM 57.9 °F 53.1 °F 84% 29.64 in 10.0 mi SSE 16.1 mph - 0.00 in Rain Light Rain
5:56 AM 57.0 °F 53.1 °F 87% 29.64 in 10.0 mi SE 13.8 mph - 0.00 in   Overcast
6:34 AM 57.2 °F 53.6 °F 88% 29.62 in 10.0 mi SSE 12.7 mph 23.0 mph 0.00 in Rain Light Rain
6:56 AM 57.0 °F 52.0 °F 83% 29.62 in 10.0 mi SE 16.1 mph - 0.00 in Rain Light Rain
7:42 AM 57.2 °F 51.8 °F 82% 29.61 in 10.0 mi SSE 25.3 mph 33.4 mph 0.00 in   Overcast
7:56 AM 57.0 °F 52.0 °F 83% 29.61 in 10.0 mi SE 26.5 mph 35.7 mph 0.00 in   Overcast
8:56 AM 57.9 °F 51.1 °F 78% 29.60 in 10.0 mi SSE 32.2 mph 42.6 mph N/A   Mostly Cloudy
9:08 AM 57.2 °F 51.8 °F 82% 29.58 in 10.0 mi SSE 29.9 mph 42.6 mph 0.00 in Rain Light Rain
9:56 AM 59.0 °F 51.1 °F 75% 29.57 in 10.0 mi SE 34.5 mph 47.2 mph 0.00 in   Mostly Cloudy
10:48 AM 59.0 °F 48.2 °F 67% 29.55 in 10.0 mi SSE 35.7 mph 48.3 mph 0.00 in Rain Light Rain
10:56 AM 59.0 °F 48.9 °F 69% 29.56 in 10.0 mi SSE 36.8 mph 46.0 mph 0.00 in Rain Light Rain
11:25 AM 60.8 °F 48.2 °F 63% 29.54 in 10.0 mi SE 35.7 mph 49.5 mph 0.00 in   Overcast
11:42 AM 59.0 °F 48.2 °F 67% 29.52 in 10.0 mi SSE 35.7 mph 49.5 mph 0.00 in Rain Light Rain
11:56 AM 59.0 °F 48.0 °F 67% 29.54 in 10.0 mi SSE 32.2 mph 52.9 mph 0.00 in   Overcast
12:16 PM 59.0 °F 48.2 °F 67% 29.52 in 10.0 mi SSE 36.8 mph 46.0 mph 0.00 in Rain Light Rain
12:56 PM 57.0 °F 50.0 °F 77% 29.55 in 10.0 mi SSE 31.1 mph 42.6 mph 0.00 in Rain Light Rain
1:56 PM 57.9 °F 53.1 °F 84% 29.57 in 10.0 mi SSE 26.5 mph 39.1 mph 0.02 in Rain Light Rain
2:21 PM 57.2 °F 53.6 °F 88% 29.55 in 10.0 mi SSE 21.9 mph 36.8 mph 0.00 in   Mostly Cloudy
2:56 PM 60.1 °F 53.1 °F 78% 29.58 in 10.0 mi SSE 23.0 mph 36.8 mph 0.00 in   Mostly Cloudy
3:56 PM 60.1 °F 52.0 °F 75% 29.60 in 10.0 mi SSE 18.4 mph 26.5 mph N/A   Overcast
4:28 PM 59.0 °F 53.6 °F 82% 29.59 in 10.0 mi SSE 19.6 mph 27.6 mph 0.00 in Rain Light Rain
4:56 PM 59.0 °F 54.0 °F 83% 29.61 in 10.0 mi SSE 16.1 mph - 0.00 in   Mostly Cloudy
5:56 PM 60.1 °F 54.0 °F 80% 29.62 in 10.0 mi SE 9.2 mph - N/A   Mostly Cloudy
6:56 PM 59.0 °F 54.0 °F 83% 29.63 in 10.0 mi SSE 9.2 mph - N/A   Mostly Cloudy
7:56 PM 57.9 °F 54.0 °F 87% 29.65 in 10.0 mi SE 8.1 mph - N/A   Mostly Cloudy
8:06 PM 57.2 °F 53.6 °F 88% 29.64 in 10.0 mi SE 6.9 mph - 0.00 in Rain Light Rain
8:15 PM 57.2 °F 53.6 °F 88% 29.64 in 10.0 mi SE 8.1 mph - 0.00 in   Mostly Cloudy
8:43 PM 57.2 °F 53.6 °F 88% 29.65 in 10.0 mi SE 5.8 mph - 0.00 in Rain Light Rain
8:56 PM 57.9 °F 54.0 °F 87% 29.67 in 10.0 mi South 6.9 mph - 0.00 in   Overcast
9:56 PM 57.0 °F 54.0 °F 89% 29.69 in 10.0 mi ESE 5.8 mph - N/A   Mostly Cloudy
10:18 PM 57.2 °F 53.6 °F 88% 29.68 in 10.0 mi SE 9.2 mph - 0.00 in Rain Light Rain
10:27 PM 57.2 °F 53.6 °F 88% 29.68 in 10.0 mi SE 8.1 mph - 0.00 in   Mostly Cloudy
10:56 PM 57.0 °F 53.1 °F 87% 29.71 in 10.0 mi SSE 8.1 mph - 0.00 in   Mostly Cloudy
11:19 PM 57.2 °F 53.6 °F 88% 29.70 in 10.0 mi ESE 9.2 mph - 0.00 in Rain Light Rain
11:40 PM 57.2 °F 53.6 °F 88% 29.71 in 10.0 mi SE 8.1 mph - 0.00 in   Overcast
11:56 PM 55.9 °F 53.1 °F 90% 29.71 in 10.0 mi SE 9.2 mph - 0.00 in Rain Light Rain